Quillayute, WA

2:14 AM PDT on May 25, 2017 (GMT -0700)
Quillayute

Weather History for KUIL - August, 2014

Change the Weather History Date:

Monday, August 18, 2014

  Actual Average Record
Temperature  
Mean Temperature 62 °F 60 °F  
Max Temperature 74 °F 69 °F 96 °F (2016)
Min Temperature 50 °F 51 °F 36 °F (1973)
Degree Days  
Heating Degree Days 3 6  
Month to date heating degree days 57 96  
Since 1 June heating degree days 442 584  
Since 1 July heating degree days 193 290  
Cooling Degree Days 0 0  
Month to date cooling degree days 8 0  
Year to date cooling degree days 18 11  
Since 1 June cooling degree days 14 10  
Growing Degree Days 12 (Base 50)    
Moisture  
Dew Point 56 °F    
Average Humidity 84    
Maximum Humidity 100    
Minimum Humidity 68    
Precipitation  
Precipitation 0.00 in 0.09 in 0.66 in (1995)
Month to date precipitation 0.52 1.23  
Year to date precipitation 55.68 55.46  
Sea Level Pressure  
Sea Level Pressure 29.98 in    
Wind  
Wind Speed 4 mph (West)    
Max Wind Speed 14 mph    
Max Gust Speed 16 mph    
Visibility 4 miles    
Events Fog    
T = Trace of Precipitation, MM = Missing Value Source: NWS Daily Summary

Daily Weather History Graph

Daily Weather History Graph

Search for Another Location

Airport or City:

Trip Planner

Search our weather history database for the weather conditions in past years. The results will help you decide how hot, cold, wet, or windy it might be!

Date:

Astronomy

Aug. 18, 2014 Rise Set
Actual Time 6:17 AM PDT 8:25 PM PDT
Civil Twilight 5:43 AM PDT 8:59 PM PDT
Nautical Twilight 5:01 AM PDT 9:40 PM PDT
Astronomical Twilight 4:14 AM PDT 10:27 PM PDT
Moon 12:23 AM PDT (8/18) 3:41 PM PDT (8/18)
Length of Visible Light 15h 15m
Length of Day
14h 08m
Last Quarter, 37% of the Moon is Illuminated
Aug 18
Last Quarter
Aug 25
New
Sep 2
First Quarter
Sep 8
Full
Sep 15
Last Quarter

Hourly Weather History & Observations

Time (PDT) Temp. Dew Point Humidity Pressure Visibility Wind Dir Wind Speed Gust Speed Precip Events Conditions
12:53 AM 54.0 °F 54.0 °F 100% 30.06 in 0.2 mi Calm Calm - N/A Fog Fog
1:53 AM 53.1 °F 53.1 °F 100% 30.05 in 0.2 mi Calm Calm - N/A Fog Fog
2:53 AM 53.1 °F 53.1 °F 100% 30.05 in 0.2 mi Calm Calm - N/A Fog Fog
3:53 AM 52.0 °F 52.0 °F 100% 30.05 in 0.2 mi Calm Calm - N/A Fog Fog
4:46 AM 51.1 °F 51.1 °F 100% 30.03 in 0.5 mi Calm Calm - N/A Fog Fog
4:53 AM 52.0 °F 52.0 °F 100% 30.04 in 0.5 mi Calm Calm - N/A Fog Fog
5:01 AM 51.1 °F 51.1 °F 100% 30.03 in 0.2 mi Calm Calm - N/A Fog Fog
5:51 AM 51.8 °F 51.8 °F 100% 30.02 in 0.5 mi Calm Calm - N/A Fog Fog
5:53 AM 51.1 °F 51.1 °F 100% 30.03 in 0.5 mi Calm Calm - N/A Fog Fog
6:15 AM 51.1 °F 51.1 °F 100% 30.02 in 0.2 mi Calm Calm - N/A Fog Fog
6:53 AM 50.0 °F 50.0 °F 100% 30.02 in 0.2 mi Calm Calm - N/A Fog Fog
7:08 AM 51.1 °F 51.1 °F 100% 30.01 in 1.0 mi ENE 3.5 mph - N/A   Mist
7:10 AM 51.1 °F 51.1 °F 100% 30.01 in 2.0 mi Calm Calm - N/A   Mostly Cloudy
7:18 AM 51.1 °F 51.1 °F 100% 30.01 in 5.0 mi Calm Calm - N/A   Mostly Cloudy
7:53 AM 54.0 °F 53.1 °F 97% 30.02 in 4.0 mi Calm Calm - N/A   Mostly Cloudy
8:15 AM 55.9 °F 55.0 °F 97% 30.02 in 6.0 mi Calm Calm - N/A   Scattered Clouds
8:53 AM 57.9 °F 57.0 °F 97% 30.02 in 3.0 mi Calm Calm - N/A   Mostly Cloudy
9:20 AM 61.0 °F 57.9 °F 90% 30.01 in 7.0 mi Calm Calm - N/A   Scattered Clouds
9:53 AM 64.9 °F 59.0 °F 81% 30.01 in 7.0 mi WSW 3.5 mph - N/A   Clear
10:53 AM 68.0 °F 59.0 °F 73% 30.01 in 7.0 mi WSW 12.7 mph - N/A   Clear
11:53 AM 66.0 °F 55.9 °F 70% 30.00 in 7.0 mi SW 8.1 mph - N/A   Clear
12:53 PM 68.0 °F 63.0 °F 84% 29.98 in 7.0 mi SW 8.1 mph - N/A   Clear
1:33 PM 70.0 °F 64.0 °F 81% 29.97 in 7.0 mi SW 8.1 mph - N/A   Partly Cloudy
1:53 PM 69.1 °F 63.0 °F 81% 29.97 in 7.0 mi SW 9.2 mph - N/A   Clear
2:53 PM 68.0 °F 62.1 °F 81% 29.95 in 7.0 mi WSW 10.4 mph - N/A   Clear
3:53 PM 70.0 °F 64.0 °F 81% 29.94 in 7.0 mi West 9.2 mph - N/A   Clear
4:53 PM 71.1 °F 64.0 °F 78% 29.93 in 7.0 mi NNW 6.9 mph - N/A   Clear
5:53 PM 68.0 °F 62.1 °F 81% 29.91 in 7.0 mi NNW 5.8 mph - N/A   Clear
6:53 PM 66.9 °F 63.0 °F 87% 29.90 in 7.0 mi North 5.8 mph - N/A   Clear
7:53 PM 66.9 °F 64.0 °F 90% 29.89 in 7.0 mi Calm Calm - N/A   Clear
8:53 PM 62.6 °F 62.6 °F 100% 29.89 in 8.0 mi WNW 4.6 mph - N/A   Clear
9:53 PM 60.1 °F 60.1 °F 100% 29.88 in 7.0 mi WNW 4.6 mph - N/A   Clear
10:53 PM 57.9 °F - N/A% 29.86 in 7.0 mi East 3.5 mph - N/A   Clear
11:53 PM 57.0 °F - N/A% 29.87 in 6.0 mi NW 4.6 mph - N/A   Haze